SBU212 TFFR-TFFJ

Flight info

Callsign SBU212
Flight time 0h 53m
Altitude 8000
Route BIMBO2F BIMBO A517 SKB DCT ZPATA/N0179F070
Aircraft C208/L-SDFGR/C

Departure

Time 2026-05-05 11:36
Airport Maryse Condé International Airport (TFFR)

Arrival

Time 2026-05-05 12:29
Airport St. Jean Airport (TFFJ)
Time Latitude Longitude Altitude Speed Heading
2026-05-05 11:23 16.26229 -61.52475 30 ft 0 kts 341°
2026-05-05 11:31 16.26242 -61.52480 30 ft 6 kts 342°
2026-05-05 11:31 16.26280 -61.52529 30 ft 13 kts 281°
2026-05-05 11:31 16.26297 -61.52615 29 ft 16 kts 280°
2026-05-05 11:31 16.26313 -61.52706 29 ft 1 kts 289°
2026-05-05 11:32 16.26324 -61.52687 29 ft 9 kts 98°
2026-05-05 11:32 16.26322 -61.52615 29 ft 10 kts 72°
2026-05-05 11:32 16.26395 -61.52584 28 ft 16 kts 334°
2026-05-05 11:32 16.26443 -61.52719 28 ft 25 kts 282°
2026-05-05 11:33 16.26483 -61.52920 28 ft 32 kts 281°
2026-05-05 11:33 16.26526 -61.53169 30 ft 38 kts 280°
2026-05-05 11:33 16.26582 -61.53453 32 ft 43 kts 283°
2026-05-05 11:33 16.26653 -61.53838 31 ft 62 kts 280°
2026-05-05 11:34 16.26714 -61.54173 30 ft 40 kts 280°
2026-05-05 11:34 16.26719 -61.54375 29 ft 18 kts 238°
2026-05-05 11:34 16.26751 -61.54371 30 ft 7 kts 88°
2026-05-05 11:34 16.26750 -61.54364 30 ft 0 kts 103°
2026-05-05 11:35 16.26749 -61.54361 30 ft 7 kts 102°
2026-05-05 11:35 16.26703 -61.54112 31 ft 60 kts 101°
2026-05-05 11:35 16.26608 -61.53574 117 ft 85 kts 99°
2026-05-05 11:35 16.26520 -61.52976 397 ft 83 kts 99°
2026-05-05 11:36 16.26450 -61.52354 622 ft 92 kts 95°
2026-05-05 11:36 16.26386 -61.51706 922 ft 86 kts 95°
2026-05-05 11:36 16.26339 -61.51084 1152 ft 92 kts 91°
2026-05-05 11:36 16.26306 -61.50402 1380 ft 89 kts 92°
2026-05-05 11:37 16.26269 -61.49764 1642 ft 89 kts 92°
2026-05-05 11:37 16.26289 -61.49110 1877 ft 91 kts 83°
2026-05-05 11:37 16.26393 -61.48455 2170 ft 92 kts 82°
2026-05-05 11:37 16.26504 -61.47780 2496 ft 97 kts 81°
2026-05-05 11:38 16.26623 -61.47080 2802 ft 99 kts 82°
2026-05-05 11:38 16.26797 -61.46368 3117 ft 107 kts 66°
2026-05-05 11:38 16.27406 -61.45881 3391 ft 120 kts 20°
2026-05-05 11:38 16.28271 -61.45932 3647 ft 129 kts 353°
2026-05-05 11:39 16.29142 -61.46163 3887 ft 128 kts 353°
2026-05-05 11:39 16.30014 -61.46333 4153 ft 127 kts 357°
2026-05-05 11:39 16.30887 -61.46462 4415 ft 126 kts 359°
2026-05-05 11:39 16.31760 -61.46567 4679 ft 127 kts 359°
2026-05-05 11:40 16.32640 -61.46660 4920 ft 128 kts
2026-05-05 11:40 16.33501 -61.46937 5152 ft 136 kts 326°
2026-05-05 11:40 16.34063 -61.47738 5387 ft 139 kts 298°
2026-05-05 11:40 16.34492 -61.48619 5616 ft 138 kts 298°
2026-05-05 11:41 16.34943 -61.49490 5851 ft 136 kts 301°
2026-05-05 11:41 16.35409 -61.50339 6093 ft 134 kts 302°
2026-05-05 11:41 16.35885 -61.51168 6343 ft 133 kts 303°
2026-05-05 11:41 16.36362 -61.51986 6570 ft 133 kts 302°
2026-05-05 11:42 16.36853 -61.52817 6758 ft 136 kts 303°
2026-05-05 11:42 16.37353 -61.53655 6941 ft 137 kts 304°
2026-05-05 11:42 16.37861 -61.54502 7099 ft 140 kts 303°
2026-05-05 11:42 16.38387 -61.55382 7219 ft 145 kts 303°
2026-05-05 11:43 16.38931 -61.56287 7338 ft 149 kts 303°
2026-05-05 11:43 16.39485 -61.57215 7454 ft 152 kts 303°
2026-05-05 11:43 16.40047 -61.58158 7572 ft 154 kts 302°
2026-05-05 11:43 16.40617 -61.59110 7688 ft 156 kts 303°
2026-05-05 11:44 16.41193 -61.60074 7799 ft 157 kts 303°
2026-05-05 11:44 16.41772 -61.61043 7922 ft 158 kts 303°
2026-05-05 11:44 16.42357 -61.62021 7979 ft 163 kts 303°
2026-05-05 11:44 16.42969 -61.63044 7997 ft 169 kts 303°
2026-05-05 11:45 16.43603 -61.64093 7993 ft 172 kts 304°
2026-05-05 11:45 16.44236 -61.65150 7993 ft 172 kts 303°
2026-05-05 11:45 16.44870 -61.66212 7992 ft 173 kts 303°
2026-05-05 11:45 16.45501 -61.67272 7989 ft 172 kts 303°
2026-05-05 11:46 16.46131 -61.68327 7989 ft 171 kts 303°
2026-05-05 11:46 16.46758 -61.69377 7995 ft 171 kts 303°
2026-05-05 11:46 16.47382 -61.70431 7992 ft 171 kts 303°
2026-05-05 11:46 16.47998 -61.71468 7992 ft 170 kts 303°
2026-05-05 11:47 16.48621 -61.72508 7994 ft 169 kts 303°
2026-05-05 11:47 16.49240 -61.73549 7995 ft 169 kts 303°
2026-05-05 11:47 16.49861 -61.74594 7993 ft 170 kts 303°
2026-05-05 11:47 16.50485 -61.75641 7992 ft 171 kts 304°
2026-05-05 11:48 16.51743 -61.77753 7992 ft 171 kts 303°
2026-05-05 11:48 16.52372 -61.78807 7990 ft 172 kts 304°
2026-05-05 11:48 16.53001 -61.79869 7989 ft 173 kts 303°
2026-05-05 11:49 16.53630 -61.80933 7986 ft 172 kts 303°
2026-05-05 11:49 16.54261 -61.81987 7983 ft 172 kts 304°
2026-05-05 11:49 16.54891 -61.83045 7984 ft 172 kts 303°
2026-05-05 11:49 16.55517 -61.84098 7986 ft 171 kts 303°
2026-05-05 11:50 16.56142 -61.85146 7986 ft 170 kts 303°
2026-05-05 11:50 16.56765 -61.86198 7987 ft 171 kts 303°
2026-05-05 11:50 16.57388 -61.87246 7988 ft 170 kts 303°
2026-05-05 11:50 16.58009 -61.88290 7989 ft 169 kts 303°
2026-05-05 11:51 16.58628 -61.89328 7993 ft 168 kts 303°
2026-05-05 11:51 16.59243 -61.90367 7995 ft 168 kts 302°
2026-05-05 11:51 16.59860 -61.91407 7993 ft 169 kts 303°
2026-05-05 11:51 16.60482 -61.92453 7996 ft 170 kts 303°
2026-05-05 11:52 16.61103 -61.93497 8000 ft 169 kts 302°
2026-05-05 11:52 16.61722 -61.94539 7999 ft 169 kts 302°
2026-05-05 11:52 16.62339 -61.95576 7993 ft 168 kts 304°
2026-05-05 11:52 16.63024 -61.96538 7993 ft 167 kts 313°
2026-05-05 11:53 16.63795 -61.97442 7994 ft 167 kts 313°
2026-05-05 11:53 16.64561 -61.98347 7997 ft 166 kts 313°
2026-05-05 11:53 16.65325 -61.99246 7997 ft 166 kts 314°
2026-05-05 11:53 16.66090 -62.00145 7999 ft 165 kts 313°
2026-05-05 11:54 16.66852 -62.01041 8000 ft 165 kts 313°
2026-05-05 11:54 16.67612 -62.01936 8003 ft 165 kts 313°
2026-05-05 11:54 16.68377 -62.02832 8005 ft 166 kts 314°
2026-05-05 11:54 16.69148 -62.03729 8007 ft 166 kts 313°
2026-05-05 11:55 16.69921 -62.04629 8005 ft 167 kts 313°
2026-05-05 11:55 16.70695 -62.05534 8006 ft 168 kts 314°
2026-05-05 11:55 16.71474 -62.06443 8002 ft 168 kts 314°
2026-05-05 11:55 16.72251 -62.07352 8001 ft 168 kts 315°
2026-05-05 11:56 16.73029 -62.08259 8003 ft 168 kts 314°
2026-05-05 11:56 16.73808 -62.09166 8003 ft 168 kts 316°
2026-05-05 11:56 16.74587 -62.10071 8007 ft 167 kts 314°
2026-05-05 11:56 16.75358 -62.10977 8009 ft 167 kts 314°
2026-05-05 11:57 16.76135 -62.11886 8012 ft 168 kts 314°
2026-05-05 11:57 16.76924 -62.12798 8013 ft 170 kts 314°
2026-05-05 11:57 16.77709 -62.13721 8008 ft 170 kts 315°
2026-05-05 11:57 16.78498 -62.14650 8006 ft 171 kts 315°
2026-05-05 11:58 16.79292 -62.15579 8006 ft 172 kts 315°
2026-05-05 11:58 16.80090 -62.16509 8008 ft 172 kts 314°
2026-05-05 11:58 16.80888 -62.17440 8012 ft 172 kts 315°
2026-05-05 11:58 16.81683 -62.18360 8014 ft 173 kts 314°
2026-05-05 11:59 16.82486 -62.19298 8004 ft 173 kts 314°
2026-05-05 11:59 16.83282 -62.20233 8001 ft 172 kts 314°
2026-05-05 11:59 16.84073 -62.21164 7999 ft 171 kts 315°
2026-05-05 11:59 16.84862 -62.22096 8001 ft 171 kts 315°
2026-05-05 12:00 16.85653 -62.23025 8002 ft 171 kts 314°
2026-05-05 12:00 16.86446 -62.23954 8006 ft 172 kts 315°
2026-05-05 12:00 16.87245 -62.24886 8004 ft 173 kts 315°
2026-05-05 12:00 16.88046 -62.25819 8005 ft 173 kts 315°
2026-05-05 12:01 16.88845 -62.26751 8002 ft 172 kts 314°
2026-05-05 12:01 16.89641 -62.27682 7997 ft 172 kts 315°
2026-05-05 12:01 16.90433 -62.28610 7997 ft 170 kts 314°
2026-05-05 12:01 16.91220 -62.29535 8001 ft 170 kts 313°
2026-05-05 12:02 16.92008 -62.30457 8004 ft 170 kts 314°
2026-05-05 12:02 16.92796 -62.31381 8001 ft 171 kts 314°
2026-05-05 12:02 16.93581 -62.32306 8001 ft 170 kts 315°
2026-05-05 12:02 16.94370 -62.33227 8003 ft 171 kts 315°
2026-05-05 12:03 16.95164 -62.34157 8007 ft 172 kts 315°
2026-05-05 12:03 16.95965 -62.35095 8017 ft 174 kts 313°
2026-05-05 12:03 16.96772 -62.36043 8024 ft 175 kts 314°
2026-05-05 12:03 16.97598 -62.37000 8024 ft 179 kts 315°
2026-05-05 12:04 16.98428 -62.37962 7995 ft 177 kts 313°
2026-05-05 12:04 16.99238 -62.38916 7987 ft 174 kts 313°
2026-05-05 12:04 17.00033 -62.39858 7988 ft 172 kts 313°
2026-05-05 12:04 17.00821 -62.40790 7990 ft 171 kts 315°
2026-05-05 12:05 17.01608 -62.41716 7995 ft 170 kts 313°
2026-05-05 12:05 17.02396 -62.42637 7999 ft 170 kts 314°
2026-05-05 12:05 17.03183 -62.43559 8002 ft 171 kts 314°
2026-05-05 12:05 17.03974 -62.44488 8003 ft 172 kts 315°
2026-05-05 12:06 17.04763 -62.45419 8004 ft 171 kts 313°
2026-05-05 12:06 17.05556 -62.46342 8002 ft 171 kts 315°
2026-05-05 12:06 17.06349 -62.47264 8003 ft 170 kts 313°
2026-05-05 12:06 17.07132 -62.48188 8003 ft 169 kts 313°
2026-05-05 12:07 17.07910 -62.49107 8002 ft 169 kts 315°
2026-05-05 12:07 17.08682 -62.50011 8007 ft 170 kts 314°
2026-05-05 12:07 17.09466 -62.50937 8007 ft 170 kts 313°
2026-05-05 12:07 17.10252 -62.51869 8007 ft 172 kts 314°
2026-05-05 12:08 17.11054 -62.52810 8005 ft 174 kts 314°
2026-05-05 12:08 17.11857 -62.53752 8002 ft 173 kts 314°
2026-05-05 12:08 17.12657 -62.54689 8003 ft 172 kts 314°
2026-05-05 12:08 17.13456 -62.55622 8007 ft 173 kts 314°
2026-05-05 12:09 17.14256 -62.56563 8010 ft 173 kts 313°
2026-05-05 12:09 17.15052 -62.57503 8012 ft 173 kts 313°
2026-05-05 12:09 17.15851 -62.58444 8007 ft 173 kts 312°
2026-05-05 12:09 17.16647 -62.59390 8001 ft 173 kts 313°
2026-05-05 12:10 17.17449 -62.60328 8004 ft 172 kts 313°
2026-05-05 12:10 17.18253 -62.61261 8000 ft 172 kts 314°
2026-05-05 12:10 17.19054 -62.62195 8000 ft 173 kts 314°
2026-05-05 12:10 17.19584 -62.62819 8000 ft 173 kts 314°
2026-05-05 12:11 17.20380 -62.63760 8003 ft 172 kts 313°
2026-05-05 12:11 17.21169 -62.64697 8007 ft 171 kts 314°
2026-05-05 12:11 17.21958 -62.65637 8006 ft 172 kts 313°
2026-05-05 12:11 17.22747 -62.66569 8003 ft 170 kts 313°
2026-05-05 12:12 17.23533 -62.67495 8003 ft 170 kts 313°
2026-05-05 12:12 17.24317 -62.68420 8031 ft 170 kts 314°
2026-05-05 12:12 17.25104 -62.69352 8035 ft 171 kts 313°
2026-05-05 12:12 17.25893 -62.70278 8034 ft 171 kts 314°
2026-05-05 12:13 17.26687 -62.71208 8038 ft 172 kts 313°
2026-05-05 12:13 17.27482 -62.72143 8032 ft 172 kts 314°
2026-05-05 12:13 17.28280 -62.73083 8033 ft 172 kts 313°
2026-05-05 12:13 17.29078 -62.74016 8031 ft 172 kts 316°
2026-05-05 12:14 17.30016 -62.74774 8032 ft 170 kts 333°
2026-05-05 12:14 17.31076 -62.75301 8033 ft 168 kts 338°
2026-05-05 12:14 17.32140 -62.75820 8036 ft 169 kts 338°
2026-05-05 12:14 17.33207 -62.76343 8033 ft 169 kts 339°
2026-05-05 12:15 17.34272 -62.76875 8024 ft 169 kts 338°
2026-05-05 12:15 17.35314 -62.77403 8027 ft 168 kts 338°
2026-05-05 12:15 17.36373 -62.77931 8035 ft 169 kts 337°
2026-05-05 12:15 17.37430 -62.78458 8028 ft 168 kts 337°
2026-05-05 12:16 17.38485 -62.78990 8036 ft 168 kts 336°
2026-05-05 12:16 17.39541 -62.79518 8029 ft 168 kts 339°
2026-05-05 12:16 17.40604 -62.80037 8027 ft 169 kts 338°
2026-05-05 12:16 17.41672 -62.80551 8015 ft 169 kts 339°
2026-05-05 12:17 17.42740 -62.81071 8004 ft 169 kts 337°
2026-05-05 12:17 17.43795 -62.81606 7975 ft 169 kts 338°
2026-05-05 12:17 17.44853 -62.82137 7976 ft 168 kts 339°
2026-05-05 12:17 17.45912 -62.82669 7978 ft 169 kts 337°
2026-05-05 12:18 17.46988 -62.83183 7973 ft 169 kts 342°
2026-05-05 12:18 17.48127 -62.83396 7972 ft 165 kts
2026-05-05 12:18 17.49272 -62.83400 7977 ft 165 kts
2026-05-05 12:18 17.50420 -62.83435 7977 ft 165 kts
2026-05-05 12:19 17.51571 -62.83505 7979 ft 166 kts
2026-05-05 12:19 17.52733 -62.83565 7934 ft 169 kts 360°
2026-05-05 12:19 17.53913 -62.83612 7901 ft 169 kts
2026-05-05 12:19 17.55105 -62.83657 7788 ft 175 kts
2026-05-05 12:20 17.56344 -62.83717 7582 ft 181 kts
2026-05-05 12:20 17.57616 -62.83779 7350 ft 184 kts
2026-05-05 12:20 17.58895 -62.83834 7105 ft 184 kts
2026-05-05 12:20 17.60138 -62.84035 6865 ft 187 kts 339°
2026-05-05 12:21 17.61287 -62.84674 6636 ft 187 kts 340°
2026-05-05 12:21 17.62534 -62.84965 6403 ft 183 kts 358°
2026-05-05 12:21 17.63799 -62.85078 6154 ft 182 kts 358°
2026-05-05 12:21 17.65055 -62.85262 5906 ft 182 kts 355°
2026-05-05 12:22 17.66307 -62.85496 5665 ft 183 kts 353°
2026-05-05 12:22 17.67560 -62.85733 5419 ft 183 kts 353°
2026-05-05 12:22 17.68811 -62.85964 5180 ft 183 kts 354°
2026-05-05 12:22 17.70063 -62.86192 4943 ft 183 kts 354°
2026-05-05 12:23 17.71319 -62.86421 4708 ft 183 kts 354°
2026-05-05 12:23 17.72552 -62.86649 4437 ft 177 kts 355°
2026-05-05 12:23 17.73758 -62.86869 4135 ft 175 kts 355°
2026-05-05 12:23 17.74957 -62.87088 3852 ft 175 kts 355°
2026-05-05 12:24 17.76152 -62.87306 3559 ft 174 kts 354°
2026-05-05 12:24 17.77338 -62.87524 3270 ft 172 kts 354°
2026-05-05 12:24 17.78516 -62.87741 2966 ft 172 kts 355°
2026-05-05 12:24 17.79693 -62.87956 2672 ft 171 kts 355°
2026-05-05 12:25 17.80867 -62.88171 2380 ft 171 kts 355°
2026-05-05 12:25 17.82033 -62.88383 2074 ft 170 kts 355°
2026-05-05 12:25 17.83203 -62.88600 1786 ft 170 kts 355°
2026-05-05 12:25 17.84366 -62.88814 1494 ft 169 kts 355°
2026-05-05 12:26 17.85516 -62.89024 1199 ft 163 kts 356°
2026-05-05 12:26 17.86563 -62.89212 1041 ft 142 kts 359°
2026-05-05 12:26 17.87487 -62.89388 1018 ft 129 kts 359°
2026-05-05 12:26 17.88311 -62.89464 1005 ft 110 kts 13°
2026-05-05 12:27 17.88983 -62.89272 1010 ft 93 kts 33°
2026-05-05 12:27 17.89508 -62.88950 998 ft 82 kts 49°
2026-05-05 12:27 17.89893 -62.88560 1003 ft 75 kts 61°
2026-05-05 12:27 17.90148 -62.88088 996 ft 75 kts 76°
2026-05-05 12:28 17.90297 -62.87548 925 ft 79 kts 82°
2026-05-05 12:28 17.90397 -62.86962 851 ft 82 kts 84°
2026-05-05 12:28 17.90384 -62.86350 747 ft 86 kts 91°
2026-05-05 12:28 17.90388 -62.85739 561 ft 81 kts 90°
2026-05-05 12:29 17.90409 -62.85166 352 ft 74 kts 85°
2026-05-05 12:29 17.90434 -62.84651 90 ft 69 kts 90°
2026-05-05 12:29 17.90440 -62.84249 29 ft 33 kts 87°
2026-05-05 12:29 17.90451 -62.84090 16 ft 14 kts 64°
2026-05-05 12:30 17.90442 -62.84091 16 ft 9 kts 272°
2026-05-05 12:30 17.90443 -62.84199 26 ft 22 kts 270°
2026-05-05 12:30 17.90435 -62.84374 36 ft 13 kts 255°
2026-05-05 12:30 17.90393 -62.84421 40 ft 9 kts 272°
2026-05-05 12:31 17.90387 -62.84486 45 ft 6 kts 209°
2026-05-05 12:31 17.90373 -62.84474 44 ft 0 kts 84°